Regional Weather Roundup
Issued by NWS Goodland, KS

Home | Current Version | Previous Version | Graphics & Text | Print | Product List | Glossary On
Versions: 1 2 3 4 5 6 7 8 9 10 11 12 13 14 15 16 17 18 19 20 21 22 23 24 25 26 27 28 29 30 31 32 33 34 35 36 37 38 39 40 41 42 43 44 45 46 47 48 49 50
000
ASUS43 KGLD 130159
RWRGLD

GOODLAND FORECAST AREA HOURLY WEATHER ROUNDUP
NATIONAL WEATHER SERVICE GOODLAND KS
700 PM MST FRI FEB 12 2016

...OFFICIAL OBSERVATIONS...

CITY           SKY/WX    TMP DP  RH WIND       PRES   REMARKS
GOODLAND KS    CLOUDY    30  29  96 SE14      30.37R FOG     WCI  19
HILL CITY KS   CLOUDY    32  26  78 E12       30.47R
IMPERIAL NEB   CLOUDY    32  28  85 SE14      30.38R
MCCOOK NEB     CLOUDY    29  27  92 E15       30.44R FOG     WCI  18
AKRON CO       FOG       30  30 100 SE22      30.28S VSB 1/4 WCI  17
BURLINGTON CO  CLOUDY    31  29  92 SE15      30.33R FOG
LIMON CO       CLEAR     36  29  75 SE10      30.28R
$$

...UNOFFICIAL OBSERVATIONS...

CITY           SKY/WX    TMP DP  RH WIND       PRES   REMARKS
COLBY KS       CLOUDY    32  32 100 E13       30.40S
GOVE KS          N/A     32  32 100 MISG        N/A
LENORA KS        N/A     31  32 100 MISG        N/A
NORTON KS      CLOUDY    28  25  86 E12       30.46R WCI  18
SHARON SPRINGS   N/A     32  29  90 S8G15       N/A
KIT CARSON CO    N/A     32  28  85 MISG        N/A
YUMA CO          N/A     30  29  94 SE13        N/A  WCI  20
$$



USA.gov is the U.S. government's official web portal to all federal, state and local government web resources and services.